Date String (YYYY-MM-DD hh:mm:ss) UTC,Instrument flags,Ambient pressure (hPa),Sample flow (lpm),Bypass flow (lpm),Sample temperature (°C),Ambient temperature (°C),ASC tube jacket temperature (°C),LED temperature (°C),Box temperature (°C),Sample RH (%),Span deviation,Mass concentration (μg/m³),Mass concentration (μg/m³),Mass concentration (μg/m³)
DateTimeUTC,F1_M11,P_M11,Q1_M11,Q2_M11,T1_M11,T2_M11,T3_M11,T4_M11,T5_M11,U1_M11,ZSPAN_M11,X0_M11,X2_M11,X1_M11
2021-12-27 06:00:00,,0816.2,5.01,0.00,20.9,20.5,00.0,30.1,22.4,12.8,0000.0,0002.93,0000.70,0000.39
2021-12-27 06:01:00,,0816.2,5.00,0.00,21.1,21.5,00.0,30.2,22.8,12.7,0000.0,0003.23,0000.71,0000.39
2021-12-27 06:02:00,,0816.2,5.00,0.00,21.3,22.5,00.0,30.2,23.2,12.6,0000.0,0003.27,0000.72,0000.40
2021-12-27 06:03:00,,0816.1,5.00,0.00,21.4,22.4,00.0,30.2,23.3,12.4,0000.0,0003.30,0000.73,0000.42
2021-12-27 06:04:00,,0816.1,5.00,0.00,21.4,22.0,00.0,30.3,23.1,12.4,0000.0,0003.43,0000.77,0000.45
2021-12-27 06:05:00,,0816.2,5.01,0.00,21.3,21.7,00.0,30.3,23.0,12.4,0000.0,0003.07,0000.76,0000.45
2021-12-27 06:06:00,,0816.2,4.99,0.00,21.3,21.3,00.0,30.3,22.8,12.5,0000.0,0002.82,0000.76,0000.46
2021-12-27 06:07:00,,0816.1,5.00,0.00,21.2,21.1,00.0,30.3,22.7,12.5,0000.0,0002.84,0000.80,0000.48
2021-12-27 06:08:00,,0816.2,5.00,0.00,21.1,20.8,00.0,30.2,22.6,12.5,0000.0,0002.87,0000.87,0000.52
2021-12-27 06:09:00,,0816.1,5.00,0.00,21.1,20.6,00.0,30.2,22.5,12.5,0000.0,0002.30,0000.92,0000.56
2021-12-27 06:10:00,,0816.1,4.99,0.00,21.0,20.5,00.0,30.2,22.4,12.6,0000.0,0002.35,0000.93,0000.58
2021-12-27 06:11:00,,0816.2,4.99,0.00,21.0,20.4,00.0,30.2,22.4,12.6,0000.0,0002.21,0000.97,0000.59
2021-12-27 06:12:00,,0816.2,5.01,0.00,21.0,20.3,00.0,30.1,22.4,12.6,0000.0,0002.03,0001.02,0000.61
2021-12-27 06:13:00,,0816.3,4.99,0.00,20.9,20.3,00.0,30.1,22.4,12.6,0000.0,0002.05,0001.04,0000.61
2021-12-27 06:14:00,,0816.3,5.01,0.00,21.0,20.7,00.0,30.1,22.5,12.6,0000.0,0001.95,0001.00,0000.59
2021-12-27 06:15:00,,0816.3,5.00,0.00,21.1,21.7,00.0,30.2,22.9,12.4,0000.0,0001.79,0000.96,0000.55
2021-12-27 06:16:00,,0816.3,4.99,0.00,21.3,22.6,00.0,30.2,23.3,12.3,0000.0,0001.79,0000.96,0000.53
2021-12-27 06:17:00,,0816.3,5.00,0.00,21.4,22.5,00.0,30.3,23.3,12.2,0000.0,0001.86,0000.97,0000.51
2021-12-27 06:18:00,,0816.3,5.01,0.00,21.4,22.1,00.0,30.3,23.2,12.2,0000.0,0001.75,0000.91,0000.47
2021-12-27 06:19:00,,0816.2,5.00,0.00,21.4,21.8,00.0,30.3,23.2,12.2,0000.0,0001.62,0000.83,0000.43
2021-12-27 06:20:00,,0816.2,4.99,0.00,21.5,21.6,00.0,30.3,23.1,12.1,0000.0,0001.50,0000.77,0000.39
2021-12-27 06:21:00,,0816.2,5.01,0.00,21.4,21.4,00.0,30.3,23.1,12.1,0000.0,0002.25,0000.76,0000.37
2021-12-27 06:22:00,,0816.3,5.01,0.00,21.4,21.3,00.0,30.3,23.0,12.0,0000.0,0002.29,0000.75,0000.35
2021-12-27 06:23:00,,0816.3,4.99,0.00,21.4,21.1,00.0,30.3,22.9,12.0,0000.0,0002.15,0000.68,0000.34
2021-12-27 06:24:00,,0816.3,5.01,0.00,21.3,21.0,00.0,30.3,22.8,12.0,0000.0,0002.17,0000.65,0000.33
2021-12-27 06:25:00,,0816.3,5.01,0.00,21.3,20.8,00.0,30.3,22.8,12.0,0000.0,0002.51,0000.68,0000.34
2021-12-27 06:26:00,,0816.3,4.98,0.00,21.3,20.7,00.0,30.3,22.7,12.0,0000.0,0002.56,0000.70,0000.35
2021-12-27 06:27:00,,0816.4,5.02,0.00,21.2,20.6,00.0,30.3,22.7,12.0,0000.0,0002.53,0000.69,0000.35
2021-12-27 06:28:00,,0816.3,4.99,0.00,21.2,20.6,00.0,30.3,22.7,12.1,0000.0,0002.44,0000.66,0000.35
2021-12-27 06:29:00,,0816.3,5.01,0.00,21.2,20.6,00.0,30.3,22.7,12.1,0000.0,0002.61,0000.72,0000.35
2021-12-27 06:30:00,,0816.3,5.00,0.00,21.2,20.5,00.0,30.2,22.7,12.0,0000.0,0002.71,0000.77,0000.35
2021-12-27 06:31:00,,0816.2,5.01,0.00,21.2,20.5,00.0,30.2,22.7,12.0,0000.0,0002.66,0000.76,0000.35
2021-12-27 06:32:00,,0816.2,5.00,0.00,21.2,20.5,00.0,30.2,22.7,12.0,0000.0,0001.81,0000.76,0000.36
2021-12-27 06:33:00,,0816.1,4.99,0.00,21.2,20.5,00.0,30.2,22.7,12.0,0000.0,0001.86,0000.76,0000.36
2021-12-27 06:34:00,,0816.1,4.99,0.00,21.2,20.7,00.0,30.2,22.8,12.0,0000.0,0001.90,0000.77,0000.37
2021-12-27 06:35:00,,0816.2,4.99,0.00,21.3,21.6,00.0,30.3,23.1,11.8,0000.0,0001.87,0000.79,0000.37
2021-12-27 06:36:00,,0816.1,5.01,0.00,21.5,22.5,00.0,30.3,23.4,11.8,0000.0,0001.60,0000.79,0000.36
2021-12-27 06:37:00,,0816.1,4.99,0.00,21.6,22.8,00.0,30.4,23.6,11.7,0000.0,0001.60,0000.77,0000.36
2021-12-27 06:38:00,,0816.0,5.00,0.00,21.7,22.5,00.0,30.4,23.6,11.7,0000.0,0001.71,0000.77,0000.35
2021-12-27 06:39:00,,0816.0,5.00,0.00,21.7,22.2,00.0,30.4,23.5,11.6,0000.0,0001.69,0000.74,0000.35
2021-12-27 06:40:00,,0816.0,5.00,0.00,21.7,21.9,00.0,30.5,23.4,11.6,0000.0,0001.59,0000.68,0000.35
2021-12-27 06:41:00,,0816.0,5.00,0.00,21.7,21.7,00.0,30.5,23.3,11.6,0000.0,0001.51,0000.64,0000.34
2021-12-27 06:42:00,,0816.0,5.00,0.00,21.7,21.5,00.0,30.5,23.3,11.6,0000.0,0001.52,0000.64,0000.34
2021-12-27 06:43:00,,0816.0,5.01,0.00,21.6,21.4,00.0,30.5,23.3,11.6,0000.0,0001.51,0000.64,0000.34
2021-12-27 06:44:00,,0816.0,4.99,0.00,21.6,21.2,00.0,30.5,23.2,11.6,0000.0,0001.45,0000.62,0000.34
2021-12-27 06:45:00,,0816.0,5.00,0.00,21.6,21.1,00.0,30.5,23.2,11.6,0000.0,0001.43,0000.62,0000.34
2021-12-27 06:46:00,,0816.0,5.02,0.00,21.6,21.1,00.0,30.5,23.1,11.7,0000.0,0001.68,0000.61,0000.33
2021-12-27 06:47:00,,0816.0,4.98,0.00,21.6,21.0,00.0,30.5,23.1,11.7,0000.0,0001.88,0000.60,0000.33
2021-12-27 06:48:00,,0816.0,5.00,0.00,21.5,21.0,00.0,30.5,23.1,11.7,0000.0,0001.96,0000.60,0000.32
2021-12-27 06:49:00,,0815.9,5.00,0.00,21.5,20.9,00.0,30.5,23.1,11.7,0000.0,0001.89,0000.61,0000.32
2021-12-27 06:50:00,,0815.9,4.98,0.00,21.5,20.9,00.0,30.5,23.0,11.7,0000.0,0001.96,0000.63,0000.33
2021-12-27 06:51:00,,0815.9,5.01,0.00,21.5,20.9,00.0,30.5,23.0,11.6,0000.0,0001.85,0000.61,0000.33
2021-12-27 06:52:00,,0815.9,4.99,0.00,21.5,20.8,00.0,30.5,23.0,11.6,0000.0,0001.91,0000.61,0000.34
2021-12-27 06:53:00,,0816.0,5.01,0.00,21.5,20.8,00.0,30.5,23.0,11.6,0000.0,0001.97,0000.61,0000.34
2021-12-27 06:54:00,,0815.9,4.99,0.00,21.4,20.8,00.0,30.5,23.0,11.6,0000.0,0002.03,0000.62,0000.34
2021-12-27 06:55:00,,0816.0,5.00,0.00,21.4,20.7,00.0,30.5,23.0,11.5,0000.0,0002.09,0000.61,0000.33
2021-12-27 06:56:00,,0815.9,5.01,0.00,21.4,21.0,00.0,30.5,23.1,11.5,0000.0,0002.05,0000.59,0000.33
2021-12-27 06:57:00,,0816.0,4.99,0.00,21.6,21.8,00.0,30.5,23.3,11.3,0000.0,0001.85,0000.61,0000.34
2021-12-27 06:58:00,,0816.0,5.01,0.00,21.7,22.6,00.0,30.6,23.7,11.3,0000.0,0001.58,0000.60,0000.34
2021-12-27 06:59:00,,0816.0,4.99,0.00,21.9,23.1,00.0,30.6,23.9,11.3,0000.0,0001.65,0000.59,0000.33
